EW2826 Weather Reports


Display with metric or nautical units.
time (UTC)temp
F
wind
direction
speed
MPH
gust
MPH
rain 1hr
in
rain 24hr
in
rain mn
in
humidity
%
barometer
mb
20260503181003 51 209 1.0 2.0 0.00 0.00 0.00 81 1027.2
20260503180024 51 203 2.0 5.0 0.00 0.00 0.00 81 1027.2
20260503175003 51 218 2.0 3.0 0.00 0.00 0.00 80 1027.2
20260503174002 51 66 1.0 1.0 0.00 0.00 0.00 79 1027.2
20260503173002 52 231 0.0 0.0 0.00 0.00 0.00 78 1027.2
20260503172003 52 14 1.0 2.0 0.00 0.00 0.00 79 1027.2
20260503171003 52 216 1.0 3.0 0.00 0.00 0.00 79 1027.2
20260503151002 54 92 1.0 5.0 0.00 0.00 0.00 77 1027.0
20260503131003 54 222 0.0 2.0 0.00 0.00 0.00 82 1026.7
20260503081003 68 81 1.0 3.0 0.00 0.00 0.00 49 1025.0
20260503072002 69 196 2.0 3.0 0.00 0.00 0.00 49 1024.9
20260503071003 69 89 3.0 6.0 0.00 0.00 0.00 50 1024.9
20260503055003 67 60 3.0 6.0 0.00 0.00 0.00 53 1025.5
20260503054023 66 104 2.0 6.0 0.00 0.00 0.00 54 1025.4
20260503053002 66 85 4.0 7.0 0.00 0.00 0.00 55 1025.5
20260503052024 66 66 2.0 5.0 0.00 0.00 0.00 57 1025.5
20260503051004 65 78 6.0 10.0 0.00 0.00 0.00 56 1025.7
20260503050024 65 99 2.0 3.0 0.00 0.00 0.00 57 1025.9
20260503045024 66 78 3.0 5.0 0.00 0.00 0.00 57 1026.0
20260503044003 65 74 4.0 7.0 0.00 0.00 0.00 57 1026.2
20260503043003 64 80 2.0 3.0 0.00 0.00 0.00 59 1026.3
20260503042003 64 93 3.0 7.0 0.00 0.00 0.00 61 1026.5
20260503041003 62 124 1.0 5.0 0.00 0.00 0.00 62 1026.8
20260503040002 62 103 2.0 3.0 0.00 0.00 0.00 63 1027.0
20260503035003 62 193 1.0 2.0 0.00 0.00 0.00 65 1027.1
20260503034003 61 86 2.0 6.0 0.00 0.00 0.00 66 1027.1
20260503033024 61 108 4.0 8.0 0.00 0.00 0.00 65 1027.3
20260503032003 61 57 5.0 10.0 0.00 0.00 0.00 64 1027.4
20260503031003 61 16 1.0 5.0 0.00 0.00 0.00 65 1027.5
20260503030003 61 105 3.0 7.0 0.00 0.00 0.00 66 1027.5
20260503025002 60 135 2.0 3.0 0.00 0.00 0.00 66 1027.7
20260503024002 60 93 3.0 5.0 0.00 0.00 0.00 66 1027.8
20260503023003 59 73 2.0 5.0 0.00 0.00 0.00 66 1027.9
20260503022003 59 163 2.0 5.0 0.00 0.00 0.00 67 1027.9
20260503021003 59 196 0.0 0.0 0.00 0.00 0.00 69 1027.9
20260503020003 58 103 2.0 5.0 0.00 0.00 0.00 71 1027.9
20260503015003 57 88 2.0 3.0 0.00 0.00 0.00 71 1027.9
20260503014023 57 66 2.0 5.0 0.00 0.00 0.00 71 1027.8
20260503013002 56 86 4.0 7.0 0.00 0.00 0.00 71 1027.8
20260503012003 56 78 4.0 7.0 0.00 0.00 0.00 75 1027.8
20260503011003 55 112 2.0 3.0 0.00 0.00 0.00 77 1027.8
20260503010003 54 107 2.0 5.0 0.00 0.00 0.00 79 1027.8
20260503005003 53 130 1.0 2.0 0.00 0.00 0.00 83 1027.7
20260503004003 52 150 2.0 5.0 0.00 0.00 0.00 87 1027.7
20260503003024 50 16 2.0 5.0 0.00 0.00 0.00 90 1027.8
20260503001003 48 107 1.0 2.0 0.00 0.00 0.00 90 1027.6
20260502235003 48 135 0.0 0.0 0.00 0.00 0.00 91 1027.3
20260502234003 46 101 2.0 3.0 0.00 0.00 0.00 93 1027.1
20260502233003 44 59 0.0 0.0 0.00 0.00 0.00 91 1027.0
20260502232024 43 53 1.0 3.0 0.00 0.00 0.00 90 1026.9
20260502231024 44 255 1.0 2.0 0.00 0.00 0.00 90 1026.8
20260502230003 43 9 1.0 3.0 0.00 0.00 0.00 90 1026.6
20260502223003 44 50 1.0 5.0 0.00 0.00 0.00 89 1026.4
20260502222003 44 175 1.0 5.0 0.00 0.00 0.00 90 1026.4
20260502221003 44 198 3.0 7.0 0.00 0.00 0.00 90 1026.3
20260502220003 44 190 2.0 7.0 0.00 0.00 0.00 89 1026.2
20260502215024 44 211 3.0 6.0 0.00 0.00 0.00 89 1026.2
20260502214003 44 191 2.0 5.0 0.00 0.00 0.00 89 1026.2
20260502212024 44 212 1.0 5.0 0.00 0.00 0.00 89 1025.9
20260502211003 44 200 2.0 5.0 0.00 0.00 0.00 89 1025.9
20260502210002 44 182 1.0 3.0 0.00 0.00 0.00 89 1025.8
20260502205003 44 222 2.0 5.0 0.00 0.00 0.00 88 1025.7
20260502204002 44 207 2.0 6.0 0.00 0.00 0.00 89 1025.6
20260502203002 44 22 1.0 3.0 0.00 0.00 0.00 88 1025.7
20260502202002 44 211 0.0 2.0 0.00 0.00 0.00 88 1025.6
20260502201023 44 225 1.0 2.0 0.00 0.00 0.00 88 1025.7
20260502200002 44 81 1.0 1.0 0.00 0.00 0.00 88 1025.7
20260502195002 44 88 0.0 2.0 0.00 0.00 0.00 88 1025.6
20260502194023 45 73 0.0 0.0 0.00 0.00 0.00 87 1025.7
20260502193003 45 234 1.0 3.0 0.00 0.00 0.00 87 1025.7
20260502192024 45 185 1.0 6.0 0.00 0.00 0.00 87 1025.8
20260502191003 46 255 1.0 3.0 0.00 0.00 0.00 87 1025.8
20260502190003 46 246 1.0 3.0 0.00 0.00 0.00 87 1025.8
20260502185003 46 226 1.0 7.0 0.00 0.00 0.00 87 1025.8
20260502184003 46 229 1.0 5.0 0.00 0.00 0.00 87 1025.7
20260502183003 46 73 1.0 1.0 0.00 0.00 0.00 87 1025.7
20260502182024 46 249 1.0 6.0 0.00 0.00 0.00 86 1025.7